Total_Precipitation_Accumulation
2.38 2.09 3.28 3.38 2.97 2.74 2.82 3.03 3.25 3.20 3.14 2.99 2.86 2.65 2.40 2.17 2.07 2.09 1.99 2.01 1.99 2.03 2.10 2.17 2.28 2.46 2.46 2.28 2.23 2.31 2.35 2.31 2.37 2.32 2.05 2.09 2.27 2.19 2.11 2.39 3.19 3.72 3.22
1.62 1.73 2.98 3.20 2.84 2.62 2.65 2.98 3.21 3.21 3.24 3.21 2.89 2.57 2.29 2.03 1.89 1.93 1.95 1.88 1.78 1.76 1.80 1.98 2.27 2.70 2.69 2.47 2.35 2.41 2.32 2.36 2.40 2.49 2.47 2.40 2.43 2.43 2.31 2.40 2.94 3.26 2.95
1.35 1.49 2.23 3.06 2.91 2.73 2.86 2.99 2.99 2.95 2.89 2.83 2.65 2.42 2.27 2.05 1.96 1.98 1.96 1.88 1.72 1.67 1.59 1.76 2.14 2.45 2.62 2.49 2.34 2.26 2.14 2.20 2.25 2.51 3.08 3.55 2.88 2.64 2.57 2.46 2.66 2.60 2.52
1.26 1.36 1.70 2.83 2.95 2.82 2.94 2.98 2.82 2.70 2.56 2.40 2.36 2.30 2.17 2.09 1.95 1.90 1.91 1.89 1.74 1.68 1.64 1.78 2.10 2.24 2.31 2.26 2.17 1.99 1.83 1.96 2.14 2.35 2.88 3.48 3.30 3.04 2.96 2.79 2.76 2.45 2.40
1.17 1.30 1.81 2.70 2.81 2.76 2.73 2.75 2.79 2.59 2.41 2.18 2.05 2.07 2.01 2.00 1.85 1.84 1.87 1.79 1.69 1.67 1.60 1.67 1.95 2.14 2.32 2.20 2.04 1.89 1.79 1.89 2.10 1.86 2.20 2.90 3.56 3.46 2.94 2.87 2.86 2.57 2.44
1.21 1.29 1.74 2.40 2.58 2.63 2.56 2.54 2.48 2.32 2.14 2.05 1.92 1.96 1.99 1.96 1.85 1.80 1.73 1.71 1.70 1.70 1.65 1.61 1.74 2.06 2.37 2.29 2.18 2.14 2.08 1.98 1.77 1.77 2.19 2.79 3.47 3.45 2.99 2.82 2.65 2.66 2.55
1.30 1.24 1.57 2.19 2.31 2.43 2.38 2.21 2.18 2.17 2.02 1.94 1.87 1.78 1.79 1.83 1.84 1.80 1.82 1.82 1.70 1.70 1.74 1.68 1.78 1.89 2.11 2.21 2.32 2.30 2.19 1.86 1.62 1.91 2.08 2.59 3.03 3.25 2.85 2.73 2.77 2.88 2.73
1.33 1.23 1.36 1.90 2.15 2.22 2.17 2.14 2.12 2.07 1.96 1.84 1.71 1.63 1.66 1.70 1.67 1.61 1.63 1.67 1.62 1.60 1.67 1.64 1.69 1.66 1.71 1.92 2.21 2.44 2.34 1.76 1.44 1.64 1.77 2.37 3.20 3.32 2.78 2.72 2.81 2.97 3.03
1.56 1.41 1.32 1.45 1.69 1.89 2.11 2.17 2.24 2.21 2.15 1.99 1.77 1.65 1.67 1.63 1.50 1.42 1.53 1.63 1.67 1.71 1.82 1.81 1.82 1.73 1.70 1.89 2.15 2.41 2.30 1.74 1.62 1.72 1.58 2.45 3.50 3.18 2.65 2.47 2.56 2.68 2.87
1.50 1.46 1.37 1.41 1.48 1.58 1.80 2.12 2.40 2.49 2.57 2.27 1.89 1.75 1.63 1.48 1.41 1.47 1.54 1.67 1.83 1.97 2.13 2.17 2.07 1.90 1.87 1.94 2.08 2.13 1.91 1.56 1.65 1.69 2.05 2.62 3.46 3.25 2.65 2.35 2.40 2.32 2.46
1.11 1.17 1.23 1.30 1.42 1.50 1.59 1.72 2.19 2.41 2.57 2.19 1.71 1.72 1.57 1.37 1.30 1.45 1.55 2.01 2.14 2.22 2.45 2.55 2.35 2.10 1.91 1.84 1.90 1.85 1.52 1.31 1.49 1.81 2.32 3.03 3.46 3.30 2.77 2.46 2.24 2.22 2.18
0.94 0.89 0.90 0.91 1.01 1.21 1.33 1.62 1.99 2.05 2.16 1.82 1.58 1.58 1.52 1.57 1.53 1.27 1.45 1.99 2.25 2.34 2.20 2.21 2.30 2.00 1.62 1.36 1.34 1.34 1.31 1.31 1.53 1.83 2.44 3.43 3.70 3.50 2.96 2.52 2.22 2.24 2.21
0.72 0.72 0.71 0.75 0.79 0.97 1.32 1.63 1.89 2.03 2.11 2.07 2.00 1.75 1.71 1.61 1.41 1.27 1.32 1.44 1.59 1.70 1.59 1.65 1.73 1.56 1.46 1.30 1.25 1.22 1.18 1.37 1.81 2.00 2.65 3.59 3.94 3.75 3.26 2.81 2.46 2.44 2.46
0.74 0.76 0.70 0.62 0.69 0.85 1.05 1.29 1.63 1.88 1.93 1.89 1.80 1.49 1.53 1.57 1.42 1.37 1.49 1.61 1.60 1.64 1.78 1.77 1.76 1.67 1.50 1.29 1.27 1.32 1.30 1.33 1.66 1.98 2.60 3.19 3.84 4.11 3.71 3.21 2.88 2.83 2.72
0.83 0.93 0.89 0.74 0.72 0.82 0.96 1.01 1.20 1.45 1.51 1.74 1.80 1.40 1.27 1.33 1.43 1.44 1.36 1.57 1.67 1.72 1.80 1.83 1.78 1.68 1.63 1.45 1.45 1.48 1.52 1.38 1.51 1.67 2.16 2.62 3.19 3.97 4.15 3.79 3.50 3.38 3.09
0.68 0.82 0.89 0.90 0.91 0.93 0.94 0.93 0.96 1.01 1.14 1.29 1.32 1.14 1.09 1.12 1.27 1.48 1.39 1.39 1.53 1.73 1.86 1.87 1.81 1.87 1.83 1.61 1.59 1.64 1.62 1.57 1.60 1.67 1.89 1.97 2.18 2.81 3.50 3.93 4.05 3.87 3.47
0.57 0.66 0.79 0.86 0.92 0.99 1.09 1.10 1.00 0.97 1.09 1.12 1.07 1.06 1.08 1.06 1.19 1.45 1.40 1.30 1.31 1.48 1.68 1.92 2.00 2.00 1.78 1.69 1.72 1.71 1.61 1.59 1.60 1.79 1.87 1.94 1.88 2.02 2.53 3.05 3.60 3.79 3.83
0.56 0.61 0.69 0.67 0.78 0.92 1.10 1.19 1.18 1.14 1.19 1.15 1.01 0.96 0.93 0.93 0.99 1.27 1.36 1.27 1.26 1.45 1.72 2.00 2.20 2.24 2.04 1.99 2.03 1.94 1.72 1.66 1.60 1.74 1.83 1.93 2.05 1.85 1.89 2.08 2.50 3.06 3.54
0.61 0.60 0.63 0.67 0.70 0.76 0.92 1.06 1.09 1.09 1.14 1.10 1.04 1.01 0.93 0.88 0.93 1.20 1.44 1.47 1.45 1.63 1.77 1.79 2.06 2.22 2.32 2.22 2.04 1.91 1.85 1.83 1.78 1.73 1.88 1.89 1.97 1.94 1.79 1.56 1.64 2.09 2.72
0.71 0.67 0.69 0.70 0.67 0.68 0.73 0.85 0.97 0.96 0.99 1.06 1.01 1.05 1.08 1.11 1.14 1.37 1.63 1.66 1.74 1.83 1.94 2.16 2.45 2.46 2.39 2.41 2.13 1.86 1.75 1.78 1.85 1.96 1.94 1.93 2.02 1.87 1.70 1.55 1.49 1.48 2.01
0.64 0.63 0.65 0.71 0.68 0.63 0.59 0.68 0.80 0.86 0.97 1.08 1.16 1.27 1.27 1.25 1.32 1.55 1.75 1.99 2.12 2.03 2.05 2.33 2.63 2.74 2.53 2.37 2.45 2.29 2.10 1.91 1.91 1.88 1.89 1.96 2.00 1.97 1.86 1.79 1.72 1.60 1.72
0.52 0.53 0.57 0.60 0.59 0.53 0.49 0.57 0.71 0.86 0.98 1.15 1.35 1.60 1.53 1.40 1.42 1.45 1.72 1.92 2.01 2.14 2.18 2.29 2.60 2.94 2.71 2.42 2.67 3.11 2.86 2.63 2.11 1.77 1.90 1.95 2.05 2.06 1.99 1.85 1.85 1.76 1.75
0.43 0.50 0.55 0.58 0.57 0.56 0.61 0.78 1.09 1.41 1.58 1.66 1.71 1.95 2.00 1.84 1.77 1.72 1.76 1.88 1.97 2.18 2.35 2.38 2.45 2.81 2.88 2.61 2.57 3.19 3.22 3.04 2.78 2.23 1.87 1.93 2.10 2.20 2.21 2.11 1.99 1.92 1.81
0.42 0.52 0.58 0.59 0.67 0.69 0.81 1.12 1.56 1.92 2.09 2.07 2.14 2.23 2.34 2.26 2.09 2.09 2.09 2.18 2.11 2.12 2.25 2.23 2.22 2.48 2.82 2.86 2.65 2.48 2.45 2.60 2.99 2.75 2.18 2.00 2.04 2.08 2.24 2.10 2.10 2.13 2.06
0.52 0.58 0.67 0.76 0.91 1.08 1.20 1.37 1.70 1.88 1.95 2.08 2.25 2.51 2.70 2.77 2.72 2.68 2.58 2.40 2.20 2.15 2.23 2.28 2.29 2.41 2.54 2.70 2.66 2.46 2.40 2.36 2.26 2.52 2.52 2.28 2.07 1.98 2.10 2.14 2.15 2.16 2.18
0.70 0.79 0.84 1.02 1.14 1.19 1.32 1.43 1.54 1.63 1.77 2.00 2.18 2.43 2.61 2.66 2.72 2.67 2.48 2.18 2.02 1.97 2.07 2.24 2.27 2.35 2.36 2.44 2.38 2.22 2.22 2.22 2.21 2.39 2.36 2.35 2.32 1.98 1.84 1.91 1.97 2.02 1.95